This is the latest recevied weather packets stored in our database for station/object K3RUP-1. If no packets are shown the sender has not sent any weather packets the latest 10 day(s).
| Time | Temp. | Humidity | Pressure | Rain* | Wind** | Luminosity | Snow |
|---|---|---|---|---|---|---|---|
| 1777300931 | 15.56° C | 80% | 1024.6 hPa | 0 mm | - | 169 W/m² | - |
| 1777300629 | 15° C | 82% | 1024.9 hPa | 0 mm | - | 187 W/m² | - |
| 1777300326 | 15° C | 81% | 1024.8 hPa | 0 mm | - | 259 W/m² | - |
| 1777300023 | 14.44° C | 82% | 1024.5 hPa | 0 mm | - | 134 W/m² | - |
| 1777299719 | 13.89° C | 86% | 1024.8 hPa | 0 mm | - | 132 W/m² | - |
| 1777299417 | 13.33° C | 85% | 1024.8 hPa | 0 mm | - | 172 W/m² | - |
| 1777299114 | 12.78° C | 84% | 1024.8 hPa | 0 mm | - | 104 W/m² | - |
| 1777298811 | 12.78° C | 85% | 1024.9 hPa | 0 mm | - | 85 W/m² | - |
| 1777298506 | 12.78° C | 85% | 1024.6 hPa | 0 mm | - | 104 W/m² | - |
| 1777298203 | 12.78° C | 85% | 1024.7 hPa | 0 mm | - | 74 W/m² | - |
| 1777297899 | 12.78° C | 86% | 1024.5 hPa | 0 mm | - | 73 W/m² | - |
| 1777297597 | 12.22° C | 88% | 1024.6 hPa | 0 mm | - | 78 W/m² | - |
| 1777297293 | 12.22° C | 90% | 1024.7 hPa | 0 mm | - | 167 W/m² | - |
| 1777296991 | 12.22° C | 91% | 1024.3 hPa | 0 mm | - | 81 W/m² | - |
| 1777296687 | 12.22° C | 93% | 1024.6 hPa | 0 mm | - | 64 W/m² | - |
| 1777296372 | 11.67° C | 93% | 1024.4 hPa | 0 mm | - | 59 W/m² | - |
| 1777296069 | 11.67° C | 95% | 1024.4 hPa | 0 mm | - | 84 W/m² | - |
| 1777295765 | 11.67° C | 96% | 1024.5 hPa | 0 mm | - | 57 W/m² | - |
| 1777295463 | 11.67° C | 97% | 1024.4 hPa | 0 mm | - | 74 W/m² | - |
| 1777295160 | 10.56° C | 98% | 1024.3 hPa | 0 mm | - | 59 W/m² | - |
| 1777294858 | 11.11° C | 99% | 1024.4 hPa | 0 mm | - | 52 W/m² | - |
| 1777294552 | 11.11° C | 99% | 1024.4 hPa | 0 mm | - | 63 W/m² | - |
| 1777294249 | 11.11° C | 99% | 1024.3 hPa | 0 mm | - | 54 W/m² | - |
| 1777293946 | 10.56° C | 99% | 1024.3 hPa | 0 mm | - | 50 W/m² | - |
| 1777293642 | 11.11° C | 99% | 1024.2 hPa | 0 mm | - | 49 W/m² | - |
* Rain latest hour (hover to see other rain measurements)
** Current wind speed in m/s (hover to see current wind gust speed)